Chamiss Bay, British Columbia

12:27 PM PST on January 18, 2017 (GMT -0800)
Solander Island

Weather History for CWRU - October, 2013

Change the Weather History Date:

Monday, October 28, 2013

  Actual Average Record
Temperature  
Mean Temperature 56 °F -  
Max Temperature 60 °F - - ()
Min Temperature 51 °F - - ()
Degree Days  
Heating Degree Days 10    
Growing Degree Days 6 (Base 50)    
Moisture  
Dew Point 28 °F    
Average Humidity 35    
Maximum Humidity 69    
Minimum Humidity 12    
Precipitation  
Precipitation 0.00 in - - ()
Sea Level Pressure  
Sea Level Pressure 29.99 in    
Wind  
Wind Speed 12 mph ()    
Max Wind Speed 23 mph    
Max Gust Speed 28 mph    
T = Trace of Precipitation, MM = Missing Value Source: Averaged Metar Reports

Daily Weather History Graph

Daily Weather History Graph

Search for Another Location

Airport or City:

Trip Planner

Search our weather history database for the weather conditions in past years. The results will help you decide how hot, cold, wet, or windy it might be!

Date:

Astronomy

Oct. 28, 2013 Rise Set
Actual Time 8:15 AM PDT 6:14 PM PDT
Civil Twilight 7:41 AM PDT 6:48 PM PDT
Nautical Twilight 7:03 AM PDT 7:26 PM PDT
Astronomical Twilight 6:26 AM PDT 8:03 PM PDT
Moon 1:40 AM PDT (10/28) 3:30 PM PDT (10/28)
Length of Visible Light 11h 06m
Length of Day
9h 58m
Waning Crescent, 33% of the Moon is Illuminated
Oct 28
Waning Crescent
Nov 3
New
Nov 9
First Quarter
Nov 17
Full
Nov 25
Last Quarter

Hourly Weather History & Observations

Time (PDT) Temp. Dew Point Humidity Pressure Visibility Wind Dir Wind Speed Gust Speed Precip Events Conditions
12:00 AM 57.0 °F 30.6 °F 37% 30.05 in - NNE 20.7 mph - N/A   Unknown
1:00 AM 57.0 °F 25.3 °F 30% 30.05 in - NE 20.7 mph 27.6 mph N/A   Unknown
2:00 AM 55.6 °F 27.7 °F 34% 30.05 in - NE 23.0 mph - N/A   Unknown
3:00 AM 54.5 °F 33.1 °F 44% 30.03 in - NNE 21.9 mph - N/A   Unknown
4:00 AM 54.5 °F 31.5 °F 42% 30.03 in - NNE 19.6 mph - N/A   Unknown
5:00 AM 54 °F 32 °F 31% 30.02 in - NNE 20.7 mph - -  
5:00 AM 53.6 °F 31.6 °F 43% 30.02 in - NNE 20.7 mph - N/A   Unknown
6:00 AM 52.7 °F 34.5 °F 50% 30.02 in - NNE 16.1 mph - N/A   Unknown
7:00 AM 53.1 °F 32.9 °F 46% 30.02 in - NNE 15.0 mph - N/A   Unknown
8:00 AM 53.1 °F 26.8 °F 36% 30.02 in - NE 11.5 mph - N/A   Unknown
9:00 AM 52.7 °F 34.0 °F 49% 30.03 in - NNE 10.4 mph - N/A   Unknown
10:00 AM 55.8 °F 23.0 °F 28% 30.02 in - SE 6.9 mph - N/A   Unknown
11:00 AM 56 °F 28 °F 22% 30.00 in - ESE 4.6 mph - -  
11:00 AM 56.1 °F 27.7 °F 34% 30.00 in - ESE 4.6 mph - N/A   Unknown
12:00 PM 57.9 °F 24.1 °F 27% 30.00 in - NW 1.2 mph - N/A   Unknown
1:00 PM 55.6 °F 29.1 °F 36% 29.99 in - South 5.8 mph - N/A   Unknown
2:00 PM 57.4 °F 23.9 °F 28% 29.99 in - South 6.9 mph - N/A   Unknown
3:00 PM 58.1 °F 24.4 °F 27% 29.98 in - SW 4.6 mph - N/A   Unknown
4:00 PM 58.3 °F 22.8 °F 25% 29.97 in - NW 4.6 mph - N/A   Unknown
5:00 PM 59 °F 20 °F 12% 29.96 in - North 3.5 mph - -  
5:00 PM 59.2 °F 20.5 °F 22% 29.96 in - North 3.5 mph - N/A   Unknown
6:00 PM 58.3 °F 13.6 °F 17% 29.95 in - North 6.9 mph - N/A   Unknown
7:00 PM 58.6 °F 11.3 °F 15% 29.94 in - North 6.9 mph - N/A   Unknown
8:00 PM 56.8 °F 15.3 °F 20% 29.94 in - NNW 5.8 mph - N/A   Unknown
9:00 PM 52.5 °F 37.9 °F 58% 29.93 in - ESE 5.8 mph - N/A   Unknown
10:00 PM 53.4 °F 27.9 °F 37% 29.94 in - SE 10.4 mph - N/A   Unknown
11:00 PM 51 °F 41 °F 60% 29.94 in - SE 9.2 mph - -  
11:00 PM 51.3 °F 41.4 °F 69% 29.94 in - SE 9.2 mph - N/A   Unknown